Regional Weather Roundup
Issued by NWS

Home | Current Version | Previous Version | Graphics & Text | Print | Product List | Glossary On
Versions: 1 2 3 4 5 6 7 8 9 10 11 12 13 14 15 16 17 18 19 20 21 22 23 24 25 26 27 28 29 30 31 32 33 34 35 36 37 38 39 40 41 42 43 44 45 46 47 48 49 50
000
ASUS45 KABQ 211401
RWRNM
WEATHER ROUNDUP FOR NEW MEXICO
NATIONAL WEATHER SERVICE ALBUQUERQUE NM
800 AM MDT SUN SEP 21 2014

NOTE: "FAIR" MEANS FEW OR NO CLOUDS BELOW 12,000 FEET AGL WITH NO
       SIGNIFICANT WEATHER OR OBSTRUCTIONS TO VISION.

      THIS PRODUCT IS RELEASED AS TWO VERSIONS.  ONE VERSION NEAR
      THE TOP OF THE HOUR CONTAINING PRELIMINARY DATA FROM ALBUQUERQUE
      AND OTHER STATIONS.  A FINAL VERSION WITH ADDITIONAL DATA IS
      ISSUED ABOUT 10 MINUTES AFTER THE HOUR.

NMZ501-503-504-510>518-211500-
NORTHWEST PLATEAU/NORTHCENTRAL MOUNTAINS

CITY           SKY/WX    TMP DP  RH WIND       PRES   REMARKS
FARMINGTON     MOSUNNY   63  53  70 E8        30.29R
LOS ALAMOS     SUNNY     60  53  77 S9        30.43R
SANTA FE       SUNNY     60  53  77 CALM      30.37R
TAOS           SUNNY     63  48  59 E12       30.42S
ANGEL FIRE     FAIR      43  40  91 CALM      30.54R

$$
NMZ402-403-502-505>509-211500-
WESTCENTRAL MOUNTAINS/SOUTHWEST MOUNTAINS

CITY           SKY/WX    TMP DP  RH WIND       PRES   REMARKS
GALLUP         SUNNY     60  46  59 E5        30.30R
SILVER CITY    CLOUDY    66  63  88 NE7       30.26R

$$
NMZ407-409-411-412-211500-
SOUTHERN DESERTS

CITY           SKY/WX    TMP DP  RH WIND       PRES   REMARKS
LORDSBURG      FAIR      68  63  83 MISG      30.16R
DEMING         CLOUDY    68  64  87 NE8       30.18R
LAS CRUCES     PTSUNNY   69  63  81 N5        30.20R
HOLLOMAN AFB   PTSUNNY   67  63  87 SE2       30.17R
ALAMOGORDO     MOSUNNY   68  61  77 CALM      30.19R
T OR C         CLOUDY    68  62  81 N10       30.23R

$$
NMZ519>523-211500-
CENTRAL VALLEYS/CENTRAL HIGHLANDS

CITY           SKY/WX    TMP DP  RH WIND       PRES   REMARKS
ALBUQUERQUE    MOSUNNY   68  55  63 E16       30.30R
DOUBLE EAGLE   MOSUNNY   66  55  68 E17       30.34R
CLINES CORNERS CLOUDY    59  56  89 E13       30.40R
BELEN          FAIR      63  58  84 NW5       30.29R
SOCORRO        FAIR      67  58  73 NW7       30.26R

$$
NMZ524>526-539-540-211500-
SOUTHCENTRAL MOUNTAINS

CITY           SKY/WX    TMP DP  RH WIND       PRES   REMARKS
RUIDOSO        NOT AVBL

$$
NMZ527>531-211500-
NORTHEAST HIGHLANDS/NORTHEAST PLAINS

CITY           SKY/WX    TMP DP  RH WIND       PRES   REMARKS
LAS VEGAS      CLOUDY    54  51  90 NE5       30.44R
RATON          PTSUNNY   63  54  72 NE7       30.41R
CLAYTON        CLOUDY    65  55  70 N17       30.35R

$$
NMZ532>537-211500-
EASTCENTRAL PLAINS

CITY           SKY/WX    TMP DP  RH WIND       PRES   REMARKS
TUCUMCARI      CLOUDY    67  62  84 CALM      30.28R
CANNON AFB     PTSUNNY   68 N/A N/A NE9       30.28R
CLOVIS AIRPORT   N/A     66  64  94 N12       30.30R

$$
NMZ028-029-538-211500-
SOUTHEAST PLAINS

CITY           SKY/WX    TMP DP  RH WIND       PRES   REMARKS
ROSWELL        CLOUDY    68  66  93 NE7       30.18R
CARLSBAD       CLOUDY    71  32  23 NE6       30.16R
HOBBS          LGT RAIN  66  66 100 E9        30.20R FOG


$$


USA.gov is the U.S. government's official web portal to all federal, state and local government web resources and services.